When you browse on this site, cookies collect data to enhance your experience and personalize the content and advertising you see.
Visit our Privacy Policy to learn more. By continuing to use the site, you agree to this use of cookies and data.
  • In Schweiz
  • Länderverzeichnis
  • Für 7 Tage
  • Wassertemperatur
  • Satellitenkarten
  • Wetterkarte
  • Widgets
  • user-avatar
    Anmelden

    Stündliche Wetter Sergipe

    Heute, 21 Februar, Donnerstag

    Zeit Temperatur Niederschläge Wind Luftdruck Luftfeuchtigkeit
    00:00 +26°C° 0 mm 2 m/S 742 mmHg 87%
    01:00 +25°C° 0 mm 2 m/S 742 mmHg 89%
    02:00 +25°C° 0 mm 1 m/S 742 mmHg 91%
    03:00 +25°C° 0 mm 1 m/S 742 mmHg 92%
    04:00 +25°C° 0 mm 1 m/S 742 mmHg 93%
    05:00 +24°C° 0 mm 1 m/S 742 mmHg 93%
    06:00 +24°C° 0 mm 1 m/S 742 mmHg 93%
    07:00 +24°C° 0 mm 1 m/S 742 mmHg 93%
    08:00 +27°C° 0 mm 2 m/S 743 mmHg 80%
    09:00 +29°C° 0 mm 2 m/S 743 mmHg 68%
    10:00 +31°C° 0 mm 3 m/S 743 mmHg 55%
    11:00 +34°C° 0 mm 4 m/S 743 mmHg 50%
    12:00 +35°C° 0 mm 4 m/S 743 mmHg 46%
    13:00 +37°C° 0 mm 4 m/S 743 mmHg 41%
    14:00 +37°C° 0 mm 5 m/S 742 mmHg 42%
    15:00 +36°C° 0 mm 5 m/S 741 mmHg 42%
    16:00 +36°C° 0 mm 6 m/S 741 mmHg 43%
    17:00 +34°C° 0 mm 6 m/S 741 mmHg 51%
    18:00 +32°C° 0 mm 5 m/S 741 mmHg 59%
    19:00 +29°C° 0 mm 5 m/S 741 mmHg 67%
    20:00 +28°C° 0 mm 4 m/S 742 mmHg 73%
    21:00 +28°C° 0 mm 4 m/S 743 mmHg 79%
    22:00 +27°C° 0 mm 3 m/S 743 mmHg 85%
    23:00 +26°C° 0 mm 3 m/S 744 mmHg 87%

    Morgen, 22 Februar, Freitag

    Zeit Temperatur Niederschläge Wind Luftdruck Luftfeuchtigkeit
    00:00 +26°C° 0 mm 2 m/S 744 mmHg 89%
    01:00 +26°C° 0 mm 2 m/S 744 mmHg 91%
    02:00 +25°C° 0 mm 2 m/S 743 mmHg 92%
    03:00 +25°C° 0 mm 1 m/S 743 mmHg 93%
    04:00 +25°C° 0 mm 1 m/S 742 mmHg 95%
    05:00 +25°C° 0 mm 1 m/S 743 mmHg 95%
    06:00 +25°C° 0 mm 1 m/S 743 mmHg 95%
    07:00 +25°C° 0 mm 1 m/S 743 mmHg 95%
    08:00 +27°C° 0 mm 2 m/S 744 mmHg 83%
    09:00 +29°C° 0 mm 2 m/S 744 mmHg 71%
    10:00 +31°C° 0 mm 3 m/S 745 mmHg 60%
    11:00 +33°C° 0 mm 3 m/S 744 mmHg 55%
    12:00 +34°C° 0 mm 3 m/S 744 mmHg 51%
    13:00 +36°C° 0 mm 3 m/S 743 mmHg 46%
    14:00 +35°C° 0 mm 3 m/S 743 mmHg 48%
    15:00 +35°C° 0 mm 4 m/S 742 mmHg 49%
    16:00 +35°C° 0 mm 4 m/S 741 mmHg 50%
    17:00 +33°C° 0 mm 4 m/S 741 mmHg 56%
    18:00 +32°C° 0 mm 5 m/S 741 mmHg 62%
    19:00 +30°C° 0 mm 5 m/S 741 mmHg 68%
    20:00 +29°C° 0 mm 4 m/S 742 mmHg 72%
    21:00 +28°C° 0 mm 4 m/S 743 mmHg 77%
    22:00 +27°C° 0 mm 4 m/S 744 mmHg 82%
    23:00 +27°C° 0 mm 3 m/S 744 mmHg 85%

    übermorgen, 23 Februar, Samstag

    Zeit Temperatur Niederschläge Wind Luftdruck Luftfeuchtigkeit
    00:00 +27°C° 0 mm 3 m/S 744 mmHg 87%
    01:00 +27°C° 0 mm 2 m/S 744 mmHg 90%
    02:00 +26°C° 0 mm 2 m/S 743 mmHg 91%
    03:00 +26°C° 0 mm 2 m/S 742 mmHg 93%
    04:00 +26°C° 0 mm 1 m/S 742 mmHg 94%
    05:00 +26°C° 0 mm 1 m/S 742 mmHg 94%
    06:00 +26°C° 0 mm 1 m/S 742 mmHg 94%
    07:00 +26°C° 0 mm 1 m/S 743 mmHg 94%
    08:00 +28°C° 0 mm 1 m/S 743 mmHg 82%
    09:00 +30°C° 0 mm 2 m/S 743 mmHg 71%
    10:00 +33°C° 0 mm 3 m/S 744 mmHg 60%
    11:00 +34°C° 0 mm 3 m/S 743 mmHg 54%
    12:00 +36°C° 0 mm 3 m/S 743 mmHg 48%
    13:00 +37°C° 0 mm 3 m/S 742 mmHg 42%
    14:00 +37°C° 0 mm 4 m/S 741 mmHg 45%
    15:00 +36°C° 0 mm 4 m/S 741 mmHg 47%
    16:00 +35°C° 0 mm 5 m/S 740 mmHg 50%
    17:00 +34°C° 0.2 mm 5 m/S 740 mmHg 55%
    18:00 +32°C° 0.2 mm 5 m/S 740 mmHg 61%
    19:00 +30°C° 0.2 mm 5 m/S 740 mmHg 66%
    20:00 +29°C° 0 mm 4 m/S 741 mmHg 72%
    21:00 +28°C° 0 mm 3 m/S 742 mmHg 78%
    22:00 +27°C° 0 mm 3 m/S 742 mmHg 83%
    23:00 +27°C° 0 mm 3 m/S 742 mmHg 86%

    24 Februar, Sonntag

    Zeit Temperatur Niederschläge Wind Luftdruck Luftfeuchtigkeit
    00:00 +27°C° 0 mm 2 m/S 742 mmHg 88%
    01:00 +26°C° 0 mm 2 m/S 742 mmHg 91%
    02:00 +26°C° 0 mm 2 m/S 741 mmHg 92%
    03:00 +26°C° 0 mm 1 m/S 741 mmHg 94%
    04:00 +26°C° 0 mm 1 m/S 741 mmHg 95%
    05:00 +26°C° 0 mm 1 m/S 741 mmHg 95%
    06:00 +26°C° 0 mm 1 m/S 741 mmHg 94%
    07:00 +24°C° 0 mm 0 m/S 742 mmHg 94%
    08:00 +28°C° 0 mm 1 m/S 742 mmHg 83%
    09:00 +30°C° 0 mm 2 m/S 742 mmHg 72%
    10:00 +33°C° 0 mm 3 m/S 743 mmHg 61%
    11:00 +34°C° 0.1 mm 3 m/S 742 mmHg 55%
    12:00 +35°C° 0.1 mm 3 m/S 742 mmHg 50%
    13:00 +36°C° 0.1 mm 2 m/S 741 mmHg 44%
    14:00 +36°C° 0 mm 3 m/S 740 mmHg 45%
    15:00 +36°C° 0 mm 3 m/S 740 mmHg 45%
    16:00 +37°C° 0 mm 4 m/S 739 mmHg 45%
    17:00 +35°C° 0 mm 4 m/S 739 mmHg 52%
    18:00 +33°C° 0 mm 4 m/S 739 mmHg 59%
    19:00 +32°C° 0 mm 5 m/S 739 mmHg 65%
    20:00 +30°C° 0 mm 4 m/S 740 mmHg 71%
    21:00 +29°C° 0 mm 4 m/S 740 mmHg 76%
    22:00 +28°C° 0 mm 4 m/S 741 mmHg 81%
    23:00 +28°C° 0.1 mm 3 m/S 741 mmHg 84%

    25 Februar, Montag

    Zeit Temperatur Niederschläge Wind Luftdruck Luftfeuchtigkeit
    00:00 +27°C° 0.1 mm 3 m/S 741 mmHg 86%
    01:00 +27°C° 0.1 mm 2 m/S 741 mmHg 88%
    02:00 +26°C° 0 mm 2 m/S 740 mmHg 88%
    03:00 +26°C° 0 mm 1 m/S 740 mmHg 89%
    04:00 +26°C° 0 mm 1 m/S 740 mmHg 90%
    05:00 +26°C° 0 mm 1 m/S 740 mmHg 89%
    06:00 +26°C° 0 mm 1 m/S 741 mmHg 88%
    07:00 +26°C° 0 mm 1 m/S 741 mmHg 87%
    08:00 +28°C° 0 mm 2 m/S 741 mmHg 76%
    09:00 +30°C° 0 mm 2 m/S 741 mmHg 64%
    10:00 +34°C° 0 mm 3 m/S 742 mmHg 52%
    11:00 +35°C° 0 mm 3 m/S 741 mmHg 47%
    12:00 +37°C° 0 mm 2 m/S 741 mmHg 41%
    13:00 +38°C° 0 mm 2 m/S 740 mmHg 36%
    14:00 +38°C° 0 mm 2 m/S 740 mmHg 35%
    15:00 +38°C° 0 mm 3 m/S 739 mmHg 35%
    16:00 +38°C° 0 mm 3 m/S 738 mmHg 34%
    17:00 +36°C° 0 mm 4 m/S 739 mmHg 43%
    18:00 +34°C° 0 mm 5 m/S 739 mmHg 51%
    19:00 +32°C° 0 mm 6 m/S 739 mmHg 60%
    20:00 +30°C° 0 mm 5 m/S 740 mmHg 64%
    21:00 +29°C° 0 mm 4 m/S 740 mmHg 68%
    22:00 +28°C° 0 mm 4 m/S 741 mmHg 72%
    23:00 +28°C° 0 mm 3 m/S 741 mmHg 74%

    26 Februar, Dienstag

    Zeit Temperatur Niederschläge Wind Luftdruck Luftfeuchtigkeit
    00:00 +28°C° 0 mm 3 m/S 740 mmHg 76%
    01:00 +27°C° 0 mm 2 m/S 740 mmHg 78%
    02:00 +27°C° 0 mm 2 m/S 740 mmHg 79%
    03:00 +26°C° 0 mm 2 m/S 740 mmHg 81%
    04:00 +26°C° 0 mm 2 m/S 740 mmHg 82%
    05:00 +26°C° 0 mm 2 m/S 740 mmHg 82%
    06:00 +26°C° 0 mm 2 m/S 741 mmHg 82%
    07:00 +25°C° 0 mm 2 m/S 741 mmHg 81%
    08:00 +28°C° 0 mm 2 m/S 741 mmHg 69%
    09:00 +31°C° 0 mm 2 m/S 742 mmHg 57%
    10:00 +34°C° 0 mm 3 m/S 742 mmHg 44%
    11:00 +36°C° 0 mm 2 m/S 742 mmHg 39%
    12:00 +37°C° 0 mm 2 m/S 741 mmHg 34%
    13:00 +39°C° 0 mm 2 m/S 741 mmHg 30%
    14:00 +39°C° 0 mm 3 m/S 740 mmHg 29%
    15:00 +41°C° 0 mm 4 m/S 740 mmHg 29%
    16:00 +41°C° 0 mm 4 m/S 739 mmHg 28%
    17:00 +37°C° 0 mm 5 m/S 739 mmHg 41%
    18:00 +34°C° 0 mm 5 m/S 739 mmHg 53%
    19:00 +32°C° 0 mm 6 m/S 739 mmHg 66%
    20:00 +30°C° 0 mm 5 m/S 740 mmHg 70%
    21:00 +29°C° 0 mm 5 m/S 741 mmHg 74%
    22:00 +28°C° 0 mm 5 m/S 741 mmHg 77%
    23:00 +28°C° 0 mm 4 m/S 741 mmHg 79%
    Mehr zeigen